Weather reports worldwide

Advertisment
Cherbourg, France (7024): temperature & dewpoint: 12.07.2019 07:00:00 - 18.07.2019 07:00:00 (CEST)Cherbourg, France (7024): temperature 5cm: 12.07.2019 07:00:00 - 18.07.2019 07:00:00 (CEST)Cherbourg, France (7024): temperature -20cm & temperature -100cm: 12.07.2019 07:00:00 - 18.07.2019 07:00:00 (CEST)Cherbourg, France (7024): wind speed & gusts: 12.07.2019 07:00:00 - 18.07.2019 07:00:00 (CEST)Cherbourg, France (7024): wind direction: 12.07.2019 07:00:00 - 18.07.2019 07:00:00 (CEST)Cherbourg, France (7024): reduced air pressure: 12.07.2019 07:00:00 - 18.07.2019 07:00:00 (CEST)Cherbourg, France (7024): visibility: 12.07.2019 07:00:00 - 18.07.2019 07:00:00 (CEST)Cherbourg, France (7024): sunshine duration: 12.07.2019 07:00:00 - 18.07.2019 07:00:00 (CEST)Cherbourg, France (7024): precipitation: 12.07.2019 07:00:00 - 18.07.2019 07:00:00 (CEST)
Date & Time tt [°C] td [°C] tt 5cm [°C] tt -20cm [°C] tt -100cm [°C] ff [km/h] ff [kn] fx [km/h] fx [kn] dd ppp [hPa] vv [km] sd [min] rr [mm]
18.07.2019 07:00:00 15,5 15,0 15,2 16,9 15,7 19 10 39 21 SW 1012,2 2,1 0 0,0
18.07.2019 06:00:00 15,7 14,7 14,4 16,9 15,6 19 11 32 17 SW 1012,5 15 0 0,0
18.07.2019 05:00:00 14,8 14,0 14,1 16,9 15,6 15 8 30 16 WSW 1012,7 14 0 0,0
18.07.2019 04:00:00 14,7 14,1 13,6 17,0 15,6 16 9 27 15 WSW 1013,2 12 0 0,0
18.07.2019 03:00:00 14,5 13,7 13,8 17,0 15,6 15 8 28 15 SW 1013,7 13 0 0,0
18.07.2019 02:00:00 15,1 14,1 14,6 17,1 15,6 19 11 31 17 W 1013,9 13 0 0,0
18.07.2019 01:00:00 15,2 14,4 14,4 17,1 15,6 16 9 27 15 W 1014,3 13 0 0,0
18.07.2019 00:00:00 15,2 14,2 14,4 17,2 15,7 17 9 26 14 W 1014,5 14 0 0,0
17.07.2019 23:00:00 15,2 14,1 14,3 17,2 15,6 14 8 27 15 W 1014,7 15 0 0,0
17.07.2019 22:00:00 15,3 13,7 14,5 17,2 15,6 18 10 28 15 W 1014,6 20 14 0,0
17.07.2019 21:00:00 16,4 13,5 16,6 17,2 15,6 17 9 34 19 W 1014,4 24 34 0,0
17.07.2019 20:00:00 17,2 12,9 18,1 17,1 15,6 15 8 27 14 W 1014,7 19 19 0,0
17.07.2019 19:00:00 16,6 13,9 18,2 17,1 15,6 13 7 22 12 WNW 1014,8 17 0 0,0
17.07.2019 18:00:00 19,5 13,4 22,5 17,0 15,7 13 7 31 17 WNW 1014,8 33 31 0,0
17.07.2019 17:00:00 18,6 13,9 21,4 16,9 15,7 15 8 24 13 WNW 1015,2 20 14 0,0
17.07.2019 16:00:00 19,1 13,9 25,8 16,8 15,6 10 6 22 12 NW 1015,2 33 44 0,0
17.07.2019 15:00:00 19,5 12,7 26,6 16,7 15,7 15 8 23 13 WNW 1015,4 20 58 0,0
17.07.2019 14:00:00 18,3 14,0 24,8 16,6 15,6 15 8 24 13 NW 1016,0 18 35 0,0
17.07.2019 13:00:00 18,2 14,1 26,5 16,6 15,7 13 7 22 12 NW 1016,2 17 48 0,0
17.07.2019 12:00:00 18,2 12,6 24,4 16,6 15,6 10 6 21 12 NNW 1016,2 20 55 0,0
17.07.2019 11:00:00 18,8 12,3 23,1 16,6 15,6 12 7 20 11 WNW 1016,2 38 51 0,0
17.07.2019 10:00:00 18,0 11,8 19,2 16,6 15,6 8 4 14 7 W 1016,5 16 60 0,0
17.07.2019 09:00:00 14,3 12,2 14,5 16,7 15,6 5 3 7 4 S 1016,4 15 58 0,0
17.07.2019 08:00:00 13,6 13,6 6,6 16,8 15,6 3 2 4 2 SE 1016,4 7 57 0,0
17.07.2019 07:00:00 9,7 9,6 3,4 16,9 15,6 0 0 0 0 N 1016,8 0,2 6 0,0
17.07.2019 06:00:00 9,9 9,7 3,2 17,0 15,6 0 0 0 0 N 1017,0 0,1 0 0,0
17.07.2019 05:00:00 11,6 11,3 4,6 17,1 15,6 0 0 6 4 N 1017,3 0,2 0 0,2
17.07.2019 04:00:00 12,8 12,5 10,6 17,2 15,6 5 3 10 5 NNW 1017,6 10 0 0,0
17.07.2019 03:00:00 13,3 13,1 4,5 17,3 15,6 5 3 9 5 NNW 1018,0 7 0 0,0
17.07.2019 02:00:00 12,0 11,8 4,2 17,4 15,6 6 3 9 5 N 1018,4 3,5 0 0,0
17.07.2019 01:00:00 12,3 12,1 3,8 17,5 15,6 7 4 9 5 N 1018,3 11 0 0,0
17.07.2019 00:00:00 12,5 11,9 5,1 17,6 15,6 5 3 11 6 NE 1018,4 10 0 0,0
16.07.2019 23:00:00 12,4 11,0 6,8 17,6 15,6 5 3 6 3 WNW 1018,5 19 0 0,0
16.07.2019 22:00:00 15,0 11,8 10,2 17,6 15,6 3 2 4 2 NE 1018,2 29 27 0,0
16.07.2019 21:00:00 18,3 11,8 20,0 17,5 15,6 0 0 9 5 N 1018,1 34 60 0,0
16.07.2019 20:00:00 18,6 11,7 25,5 17,4 15,6 5 3 19 11 ENE 1018,3 29 60 0,0
16.07.2019 19:00:00 18,8 12,1 29,3 17,3 15,6 10 5 18 10 NE 1018,4 20 60 0,0
16.07.2019 18:00:00 18,9 12,2 31,4 17,2 15,6 11 6 23 13 NE 1018,8 40 60 0,0
16.07.2019 17:00:00 18,8 12,3 32,1 17,0 15,6 14 8 26 14 ENE 1019,1 19 60 0,0
16.07.2019 16:00:00 19,2 12,9 35,0 16,9 15,6 16 9 28 15 NE 1019,3 27 60 0,0
16.07.2019 15:00:00 19,1 13,1 29,6 16,8 15,6 16 8 29 16 ENE 1019,2 19 53 0,0
16.07.2019 14:00:00 18,9 13,3 31,6 16,7 15,6 17 9 28 15 ENE 1019,5 18 56 0,0
16.07.2019 13:00:00 18,5 13,4 28,5 16,6 15,6 16 9 28 15 ENE 1019,6 20 35 0,0
16.07.2019 12:00:00 17,7 14,0 24,0 16,6 15,6 16 8 26 14 NE 1019,6 19 37 0,0
16.07.2019 11:00:00 16,8 13,1 22,0 16,6 15,6 14 8 27 14 ENE 1020,0 18 25 0,0
16.07.2019 10:00:00 17,2 13,7 18,4 16,6 15,6 13 7 21 11 ENE 1020,3 18 51 0,0
16.07.2019 09:00:00 15,4 13,2 13,9 16,7 15,6 10 5 17 9 ENE 1020,5 13 42 0,0
16.07.2019 08:00:00 14,1 13,9 10,1 16,8 15,6 6 4 10 5 ENE 1020,5 5 8 0,0
16.07.2019 07:00:00 12,7 12,5 7,2 16,9 15,6 0 0 0 0 N 1020,2 3,6 0 0,0
16.07.2019 06:00:00 12,6 12,4 8,4 16,9 15,6 0 0 5 3 N 1020,4 6 0 0,2
16.07.2019 05:00:00 12,5 12,2 7,8 17,0 15,6 0 0 16 9 N 1020,4 5 0 0,0
16.07.2019 04:00:00 11,9 11,6 7,7 17,1 15,6 8 4 11 6 ENE 1020,8 3,2 0 0,0
16.07.2019 03:00:00 12,0 11,4 7,8 17,2 15,6 7 4 12 6 E 1021,1 10 0 0,0
16.07.2019 02:00:00 12,0 10,9 7,8 17,3 15,6 0 0 17 9 N 1021,5 20 0 0,0
16.07.2019 01:00:00 12,1 10,5 3,4 17,4 15,6 14 7 19 10 E 1021,4 25 0 0,0
16.07.2019 00:00:00 9,6 8,5 3,4 17,5 15,6 3 2 7 4 E 1022,0 19 0 0,0
15.07.2019 23:00:00 11,7 9,1 6,6 17,6 15,6 5 3 10 5 ENE 1021,6 35 0 0,0
15.07.2019 22:00:00 13,3 9,5 9,9 17,5 15,6 6 3 15 8 E 1021,5 39 28 0,0
15.07.2019 21:00:00 15,5 10,0 16,3 17,5 15,6 10 5 25 14 E 1021,3 37 60 0,0
15.07.2019 20:00:00 16,1 10,4 18,3 17,5 15,6 16 9 26 14 E 1021,3 54 43 0,0
15.07.2019 19:00:00 16,4 10,5 20,2 17,4 15,6 14 7 27 14 E 1021,4 20 48 0,0
15.07.2019 18:00:00 16,7 10,3 27,6 17,3 15,6 18 10 30 16 ENE 1021,7 19 60 0,0
15.07.2019 17:00:00 17,1 10,5 31,2 17,1 15,6 16 8 29 16 ENE 1021,9 46 60 0,0
15.07.2019 16:00:00 17,4 10,5 29,7 17,0 15,6 16 9 30 16 ENE 1022,1 49 57 0,0
15.07.2019 15:00:00 17,9 10,3 32,6 16,9 15,6 16 8 32 17 NE 1022,2 49 60 0,0
15.07.2019 14:00:00 17,7 10,3 32,5 16,8 15,6 14 8 29 16 ENE 1022,5 54 57 0,0
15.07.2019 13:00:00 17,1 11,1 26,0 16,8 15,6 16 8 28 15 NE 1022,6 20 39 0,0
15.07.2019 12:00:00 16,3 11,4 22,2 16,8 15,6 13 7 28 15 NE 1022,9 32 7 0,0
15.07.2019 11:00:00 16,0 12,0 19,6 16,8 15,6 13 7 22 12 NE 1022,8 38 2 0,0
15.07.2019 10:00:00 16,1 11,9 18,1 16,8 15,6 14 8 23 12 ENE 1022,9 48 10 0,0
15.07.2019 09:00:00 15,4 12,5 15,2 16,9 15,6 11 6 20 11 ENE 1022,5 35 7 0,0
15.07.2019 08:00:00 14,6 12,5 12,5 16,9 15,6 8 4 14 8 ENE 1022,4 31 2 0,0
15.07.2019 07:00:00 14,2 12,4 12,8 17,0 15,6 7 4 16 9 E 1022,4 30 0 0,0
15.07.2019 06:00:00 13,9 12,5 9,5 17,1 15,6 9 5 14 7 E 1022,2 32 0 0,0
15.07.2019 05:00:00 12,9 11,5 9,7 17,1 15,6 8 4 13 7 ENE 1022,4 31 0 0,2
15.07.2019 04:00:00 13,3 12,2 10,1 17,2 15,6 8 4 16 9 ENE 1022,5 27 0 0,0
15.07.2019 03:00:00 12,9 12,1 9,1 17,3 15,6 8 5 15 8 ENE 1022,9 20 0 0,0
15.07.2019 02:00:00 12,8 11,5 7,8 17,4 15,6 9 5 14 8 ENE 1023,0 39 0 0,0
15.07.2019 01:00:00 12,7 10,9 7,7 17,5 15,6 7 4 10 5 ENE 1022,9 34 0 0,0
15.07.2019 00:00:00 13,4 11,5 11,0 17,5 15,6 9 5 16 8 E 1022,5 32 0 0,0
14.07.2019 23:00:00 13,9 11,4 12,4 17,6 15,6 13 7 20 11 E 1022,6 34 0 0,0
14.07.2019 22:00:00 15,1 11,3 13,8 17,6 15,6 11 6 26 14 E 1022,3 42 29 0,0
14.07.2019 21:00:00 16,8 11,3 17,4 17,5 15,6 15 8 29 15 E 1022,3 40 60 0,0
14.07.2019 20:00:00 17,5 12,0 20,2 17,5 15,5 22 12 34 18 E 1022,2 39 60 0,0
14.07.2019 19:00:00 18,7 12,0 23,4 17,4 15,5 20 11 38 21 E 1022,1 35 60 0,0
14.07.2019 18:00:00 18,6 12,3 27,9 17,3 15,5 21 11 36 19 ENE 1022,4 32 60 0,0
14.07.2019 17:00:00 18,6 11,9 29,7 17,2 15,6 24 13 37 20 ENE 1022,4 31 60 0,0
14.07.2019 16:00:00 19,7 12,0 27,7 17,1 15,6 22 12 39 21 E 1022,5 29 60 0,0
14.07.2019 15:00:00 19,2 12,2 27,7 17,0 15,5 22 12 38 20 E 1022,5 25 49 0,0
14.07.2019 14:00:00 18,4 11,9 25,8 16,9 15,5 24 13 38 21 ENE 1022,7 27 35 0,0
14.07.2019 13:00:00 18,8 12,3 23,1 16,9 15,5 19 11 38 20 E 1022,6 28 28 0,0
14.07.2019 12:00:00 17,9 13,2 21,2 16,9 15,5 22 12 39 21 ENE 1022,7 19 29 0,0
14.07.2019 11:00:00 18,7 12,0 22,3 16,9 15,5 24 13 36 19 E 1022,3 16 60 0,0
14.07.2019 10:00:00 17,8 13,3 16,0 17,0 15,5 19 10 30 16 E 1022,3 17 26 0,0
14.07.2019 09:00:00 15,7 14,2 14,7 17,0 15,5 18 10 30 16 E 1022,3 15 0 0,0
14.07.2019 08:00:00 15,0 14,7 13,7 17,1 15,5 13 7 21 11 E 1021,9 11 0 0,0
14.07.2019 07:00:00 14,6 14,3 11,1 17,2 15,5 10 5 21 11 E 1021,6 2,5 0 0,0
14.07.2019 06:00:00 13,5 13,0 9,5 17,3 15,5 10 5 16 8 E 1021,5 4,0 0 0,0
14.07.2019 05:00:00 13,3 12,5 9,3 17,3 15,5 8 5 10 6 ENE 1021,4 10 0 0,0
14.07.2019 04:00:00 13,7 12,8 7,9 17,5 15,5 6 4 9 5 E 1021,9 11 0 0,2
14.07.2019 03:00:00 14,0 13,0 5,8 17,6 15,5 6 3 8 5 ENE 1022,2 25 0 0,0
14.07.2019 02:00:00 13,5 12,6 6,8 17,7 15,5 5 3 10 5 NNE 1022,3 27 0 0,0
14.07.2019 01:00:00 14,2 12,8 9,6 17,7 15,5 6 3 11 6 NNW 1022,3 24 0 0,0
14.07.2019 00:00:00 13,9 12,5 9,7 17,8 15,5 7 4 10 5 NNW 1022,1 30 0 0,0
13.07.2019 23:00:00 14,6 12,8 11,8 17,8 15,5 6 3 12 7 NNW 1022,0 28 0 0,0
13.07.2019 22:00:00 15,4 13,2 14,0 17,8 15,5 6 3 15 8 NW 1022,1 20 30 0,0
13.07.2019 21:00:00 17,0 13,7 19,1 17,8 15,5 9 5 17 9 NNW 1022,0 42 60 0,0
13.07.2019 20:00:00 18,1 14,2 23,1 17,7 15,5 11 6 22 12 NW 1022,0 37 60 0,0
13.07.2019 19:00:00 17,6 14,1 24,2 17,6 15,5 15 8 24 13 WNW 1022,1 19 60 0,0
13.07.2019 18:00:00 18,5 13,4 27,2 17,5 15,5 13 7 24 13 NW 1022,3 39 60 0,0
13.07.2019 17:00:00 19,1 13,1 31,1 17,3 15,5 13 7 25 13 NW 1022,5 37 60 0,0
13.07.2019 16:00:00 18,7 13,5 30,9 17,1 15,5 13 7 23 13 NW 1022,7 20 60 0,0
13.07.2019 15:00:00 18,9 13,3 33,6 17,0 15,5 13 7 29 15 NNW 1022,7 37 60 0,0
13.07.2019 14:00:00 18,6 13,0 34,6 16,9 15,5 16 9 31 17 N 1023,0 20 60 0,0
13.07.2019 13:00:00 18,4 13,0 29,4 16,9 15,5 18 10 28 15 NNE 1023,1 20 54 0,0
13.07.2019 12:00:00 17,7 13,2 27,6 16,8 15,5 18 10 30 16 NNE 1022,8 20 54 0,0
13.07.2019 11:00:00 17,3 13,4 26,4 16,8 15,4 16 9 30 16 N 1022,8 15 54 0,0
13.07.2019 10:00:00 17,2 13,3 20,3 16,9 15,5 15 8 28 15 NNE 1022,6 13 57 0,0
13.07.2019 09:00:00 16,6 13,7 16,1 16,9 15,5 14 8 26 14 N 1022,5 38 60 0,0
13.07.2019 08:00:00 15,7 13,5 12,9 17,0 15,4 16 9 24 13 N 1022,1 41 48 0,0
13.07.2019 07:00:00 14,8 13,2 11,9 17,0 15,5 14 7 22 12 N 1021,5 32 0 0,0
13.07.2019 06:00:00 14,6 12,8 12,0 17,1 15,4 12 6 20 11 N 1021,2 36 0 0,0
13.07.2019 05:00:00 14,9 12,8 11,5 17,1 15,4 10 5 19 10 N 1021,2 42 0 0,0
13.07.2019 04:00:00 14,8 12,8 11,8 17,2 15,5 6 3 18 10 NNW 1020,7 36 0 0,0
13.07.2019 03:00:00 15,5 13,0 12,8 17,2 15,4 13 7 18 10 N 1020,7 35 0 0,0
13.07.2019 02:00:00 15,6 13,8 14,6 17,3 15,4 9 5 22 12 WNW 1020,8 20 0 0,0
13.07.2019 01:00:00 15,9 13,9 14,4 17,4 15,4 11 6 27 14 NW 1020,7 31 0 0,0
13.07.2019 00:00:00 16,6 13,9 14,2 17,4 15,4 16 9 32 17 NW 1020,2 34 0 0,0
12.07.2019 23:00:00 16,3 13,8 14,9 17,4 15,4 15 8 23 12 WNW 1019,8 33 0 0,0
12.07.2019 22:00:00 17,0 13,5 16,1 17,4 15,4 17 9 29 16 WNW 1019,3 36 30 0,0
12.07.2019 21:00:00 18,1 13,2 18,2 17,4 15,4 20 11 32 17 W 1018,9 31 60 0,0
12.07.2019 20:00:00 18,8 13,9 21,6 17,4 15,4 20 11 37 20 WNW 1018,4 19 60 0,0
12.07.2019 19:00:00 19,6 14,0 22,9 17,3 15,4 23 12 39 21 WNW 1018,0 20 60 0,0
12.07.2019 18:00:00 20,9 13,8 27,2 17,2 15,4 20 11 33 18 WNW 1017,9 21 60 0,0
12.07.2019 17:00:00 20,2 14,8 28,0 17,1 15,4 18 10 29 16 WNW 1018,0 20 60 0,0
12.07.2019 16:00:00 19,6 15,3 28,6 17,0 15,4 19 10 29 15 NW 1017,7 24 60 0,0
12.07.2019 15:00:00 19,5 14,9 26,6 17,0 15,4 18 10 29 15 NW 1017,6 20 55 0,0
12.07.2019 14:00:00 19,7 16,2 26,2 16,9 15,4 17 9 28 15 NW 1017,5 27 55 0,0
12.07.2019 13:00:00 19,1 16,1 19,0 16,9 15,4 18 10 29 16 WNW 1017,1 27 21 0,0
12.07.2019 12:00:00 17,7 16,6 19,2 16,9 15,4 16 9 23 13 WNW 1016,7 19 0 0,0
12.07.2019 11:00:00 17,3 17,0 16,7 16,9 15,4 14 8 19 10 W 1016,5 4,4 0 0,2
12.07.2019 10:00:00 16,6 16,0 16,5 16,9 15,4 10 6 17 9 W 1016,3 4,3 0 0,2
12.07.2019 09:00:00 16,5 15,9 16,0 17,0 15,4 10 5 18 10 W 1015,7 32 0 0,0
12.07.2019 08:00:00 15,9 15,6 15,5 17,0 15,4 12 7 23 12 W 1015,7 7 0 0,0
12.07.2019 07:00:00 15,7 15,1 14,6 17,0 15,4 15 8 23 13 W 1015,2 9 1 0,0

tt = temperature
td = dewpoint
tt 5cm = temperature 5cm
tt -20cm = temperature -20cm
tt -100cm = temperature -100cm
ff = wind speed
fx = gusts
dd = wind direction
ppp = reduced air pressure
vv = visibility
sd = sunshine duration
rr = precipitation

Next stations